Fairbanks, AK

4:16 AM AKDT on May 23, 2017 (GMT -0800)
Fairbanks International

Weather History for PAFA - May, 2012

Change the Weather History Date:

Monday, May 14, 2012

  Actual Average Record
Temperature  
Mean Temperature 43 °F 49 °F  
Max Temperature 56 °F 60 °F 82 °F (2016)
Min Temperature 30 °F 37 °F 21 °F (1913)
Degree Days  
Heating Degree Days 22 16  
Month to date heating degree days 321 268  
Since 1 July heating degree days 13572 13292  
Cooling Degree Days 0 0  
Month to date cooling degree days 0 0  
Year to date cooling degree days 0 0  
Moisture  
Dew Point 26 °F    
Average Humidity 50    
Maximum Humidity 79    
Minimum Humidity 18    
Precipitation  
Precipitation 0.13 in 0.01 in 0.49 in (1940)
Month to date precipitation 0.14 0.23  
Year to date precipitation 2.06 1.79  
Snow  
Snow T in 0.00 in 0.20 in (1964)
Month to date snowfall T 0.6  
Since 1 July snowfall 57.4 64.7  
Snow Depth 0.00 in    
Sea Level Pressure  
Sea Level Pressure 30.03 in    
Wind  
Wind Speed 5 mph (West)    
Max Wind Speed 18 mph    
Max Gust Speed 32 mph    
Visibility 10 miles    
Events Rain , Thunderstorm    
T = Trace of Precipitation, MM = Missing Value Source: NWS Daily Summary

Daily Weather History Graph

Daily Weather History Graph

Search for Another Location

Airport or City:

Trip Planner

Search our weather history database for the weather conditions in past years. The results will help you decide how hot, cold, wet, or windy it might be!

Date:

Astronomy

May. 14, 2012 Rise Set
Actual Time 4:30 AM AKDT 11:08 PM AKDT
Civil Twilight 2:31 AM AKDT 1:18 AM AKDT
Nautical Twilight Sun does not set Sun does not set
Astronomical Twilight Sun does not set Sun does not set
Moon 3:26 AM AKDT (5/14) 3:30 PM AKDT (5/14)
Length of Visible Light 22h 47m
Length of Day
18h 38m
Waning Crescent, 31% of the Moon is Illuminated
May 14
Waning Crescent
May 20
New
May 28
First Quarter
Jun 4
Full
Jun 11
Last Quarter

Hourly Weather History & Observations

Time (AKDT) Temp. Windchill Dew Point Humidity Pressure Visibility Wind Dir Wind Speed Gust Speed Precip Events Conditions
12:53 AM 37.9 °F - 28.9 °F 70% 29.96 in 10.0 mi Calm Calm - N/A   Scattered Clouds
1:53 AM 34.0 °F - 25.0 °F 70% 29.97 in 10.0 mi Calm Calm - N/A   Scattered Clouds
2:53 AM 34.0 °F 31.0 °F 23.0 °F 64% 29.99 in 10.0 mi East 3.5 mph - N/A   Scattered Clouds
3:53 AM 33.1 °F 27.7 °F 24.1 °F 70% 30.00 in 10.0 mi NE 5.8 mph - N/A   Scattered Clouds
4:53 AM 32.0 °F 27.5 °F 21.9 °F 66% 30.01 in 10.0 mi East 4.6 mph - N/A   Mostly Cloudy
5:53 AM 33.1 °F - 21.9 °F 64% 30.02 in 10.0 mi Calm Calm - N/A   Mostly Cloudy
6:53 AM 37.0 °F - 21.9 °F 54% 30.03 in 10.0 mi Calm Calm - N/A   Mostly Cloudy
7:53 AM 41.0 °F - 21.0 °F 45% 30.04 in 10.0 mi Calm Calm - N/A   Mostly Cloudy
8:53 AM 45.0 °F - 19.9 °F 37% 30.04 in 10.0 mi Calm Calm - N/A   Scattered Clouds
9:53 AM 46.9 °F - 21.0 °F 36% 30.03 in 10.0 mi Calm Calm - N/A   Scattered Clouds
10:53 AM 48.9 °F - 18.0 °F 29% 30.03 in 10.0 mi West 8.1 mph - N/A   Scattered Clouds
11:53 AM 51.1 °F - 17.1 °F 26% 30.03 in 10.0 mi WSW 9.2 mph - N/A   Scattered Clouds
12:53 PM 53.1 °F - 17.1 °F 24% 30.02 in 10.0 mi West 9.2 mph - N/A   Scattered Clouds
1:53 PM 54.0 °F - 18.0 °F 24% 30.02 in 10.0 mi Variable 4.6 mph - N/A   Scattered Clouds
2:53 PM 55.0 °F - 19.0 °F 24% 30.01 in 10.0 mi SW 8.1 mph - N/A   Mostly Cloudy
3:53 PM 53.1 °F - 21.9 °F 30% 30.01 in 10.0 mi WNW 8.1 mph - N/A   Mostly Cloudy
4:53 PM 55.0 °F - 24.1 °F 30% 30.00 in 10.0 mi WNW 10.4 mph 32.2 mph N/A   Mostly Cloudy
5:53 PM 52.0 °F - 25.0 °F 35% 30.01 in 10.0 mi WSW 6.9 mph - N/A   Mostly Cloudy
6:53 PM 51.1 °F - 25.0 °F 36% 30.02 in 10.0 mi West 15.0 mph - N/A   Mostly Cloudy
7:34 PM 48.2 °F - 28.4 °F 46% 30.02 in 10.0 mi WSW 15.0 mph - 0.00 in Rain Small Hail
7:36 PM 48.2 °F - 28.4 °F 46% 30.02 in 10.0 mi WSW 10.4 mph - 0.00 in Rain Light Rain
7:39 PM 46.4 °F 40.7 °F 28.4 °F 50% 30.03 in 10.0 mi WSW 12.7 mph - 0.00 in Rain Small Hail
7:48 PM 46.4 °F 41.5 °F 28.4 °F 50% 30.03 in 10.0 mi WSW 10.4 mph - 0.00 in Rain Light Rain
7:53 PM 46.9 °F - 28.0 °F 48% 30.05 in 10.0 mi WSW 15.0 mph - 0.00 in   Mostly Cloudy
8:06 PM 46.4 °F 39.2 °F 30.2 °F 53% 30.04 in 10.0 mi WSW 18.4 mph 25.3 mph N/A Rain , Thunderstorm Light Thunderstorms and Rain
8:28 PM 42.8 °F 37.5 °F 35.6 °F 76% 30.06 in 10.0 mi WNW 9.2 mph - 0.00 in Rain , Thunderstorm Thunderstorms with Small Hail
8:39 PM 42.8 °F 38.6 °F 35.6 °F 76% 30.06 in 10.0 mi WNW 6.9 mph - 0.00 in Rain , Thunderstorm Light Thunderstorms and Rain
8:53 PM 45.0 °F 40.6 °F 36.0 °F 71% 30.09 in 10.0 mi WSW 8.1 mph - 0.00 in Rain Light Rain
9:53 PM 43.0 °F 37.7 °F 36.0 °F 76% 30.09 in 10.0 mi WSW 9.2 mph - N/A   Mostly Cloudy
10:53 PM 42.1 °F 38.4 °F 35.1 °F 76% 30.11 in 10.0 mi SW 5.8 mph - N/A   Mostly Cloudy
11:53 PM 41.0 °F 36.4 °F 35.1 °F 79% 30.13 in 10.0 mi WSW 6.9 mph - N/A   Mostly Cloudy